[[{"header":{"parameterUnit":"m.s-1","parameterCategory":1,"la1":30.2991,"la2":30.254,"lo1":-89.0895,"lo2":-89.0444,"dy":0.0017,"dx":0.0017,"nx":28,"ny":28,"refTime":"2025-08-20T03:00:00:Z","depth":0,"parameterNumber":2,"parameterNumberName":"U-component_of_WINDS"},"data":[0,0,0,0,0,0,0,0,0,0,0,0,0,0,0,0,0,0,0,0,0,0,0,0,0,0,0,0,0,0,0,0,0,0,0,0,0,0,0,0,0,0,0,0,0,0,0,0,0,0,0,0,0,0,0,0,0,0,-1.7518,-1.7519,0,-1.7593,-1.7594,-1.7595,-1.7576,-1.7575,-1.7573,-1.7572,-1.7649,-1.7652,-1.7656,0,0,0,0,0,0,0,0,0,0,0,0,0,-1.7358,-1.7361,-1.7518,-1.7519,-1.752,-1.7593,-1.7594,-1.7595,-1.7576,-1.7575,-1.7573,-1.7571,-1.7648,-1.7652,-1.7656,0,0,0,0,0,0,0,0,0,0,0,0,0,-1.743,-1.7362,-1.7518,-1.7519,-1.752,-1.7593,-1.7594,-1.7596,-1.7577,-1.7575,-1.7572,-1.757,-1.7646,-1.7651,-1.7657,-1.7733,0,0,-1.7672,-1.7674,0,0,0,0,0,0,0,0,-1.7426,-1.7436,-1.7518,-1.7519,-1.7521,-1.7573,-1.7566,-1.7642,-1.7577,-1.7555,-1.7572,-1.7569,-1.7626,-1.7632,-1.7651,-1.7736,-1.7739,-1.7673,-1.7676,-1.7678,-1.7679,0,0,0,0,0,0,0,-1.7421,-1.7433,-1.7548,-1.752,-1.7521,-1.7516,-1.7524,-1.758,-1.7602,-1.7557,-1.7556,-1.7565,-1.7626,-1.7646,-1.7653,-1.7741,-1.7673,-1.7677,-1.768,-1.7682,-1.7892,-1.7894,0,0,0,0,0,0,-1.7415,-1.7429,-1.7546,-1.755,-1.7467,-1.7521,-1.753,-1.7559,-1.7601,-1.7606,-1.7567,-1.7564,-1.7639,-1.7647,-1.7656,-1.7747,-1.7678,-1.7683,-1.7686,-1.7889,-1.7892,-1.7895,0,0,0,0,0,0,-1.7412,-1.7426,-1.7543,-1.7489,-1.7504,-1.7526,-1.7559,-1.7561,-1.7582,-1.7609,-1.7612,-1.7584,-1.7637,-1.7648,-1.7714,-1.775,-1.7685,-1.769,-1.7886,-1.789,-1.7894,-1.7932,0,0,0,0,0,0,-1.7407,-1.7425,-1.7454,-1.749,-1.7507,-1.7599,-1.7561,-1.7564,-1.7591,-1.7587,-1.7626,-1.763,-1.7636,-1.7706,-1.7719,-1.7756,-1.7694,-1.7883,-1.7888,-1.7892,-1.7927,-1.7936,-1.7944,0,0,0,0,0,-1.7402,-1.7461,-1.7455,-1.747,-1.7543,-1.7601,-1.7611,-1.7617,-1.7594,-1.7623,-1.764,-1.7629,-1.7744,-1.7713,-1.7727,-1.7766,-1.7881,-1.7887,-1.7892,-1.7924,-1.7934,-1.7944,0,0,0,0,0,0,-1.7429,-1.7466,-1.746,-1.7533,-1.7564,-1.7598,-1.7635,-1.7629,-1.7667,-1.7662,-1.7668,-1.7677,-1.7744,-1.7762,-1.7726,-1.7842,-1.7809,-1.7818,-1.7828,-1.7839,-1.7847,-1.7841,-1.7698,0,0,0,0,0,-1.7443,-1.7488,-1.7518,-1.7579,-1.7595,-1.7613,-1.7638,-1.764,-1.7673,-1.7686,-1.7708,-1.774,-1.7784,-1.7812,-1.7853,-1.793,-1.7938,-1.7964,-1.7972,-1.7979,-1.7986,-1.8028,-1.804,-1.7913,-1.7913,-1.7913,0,0,-1.7474,-1.75,-1.7527,-1.7586,-1.761,-1.7656,-1.7624,-1.7674,-1.7707,-1.7694,-1.7757,-1.7774,-1.781,-1.7881,-1.7914,-1.7898,-1.8023,-1.7986,-1.7991,-1.7995,-1.8035,-1.8047,-1.8057,-1.7917,-1.7916,-1.7916,0,0,-1.7553,-1.7577,-1.7631,-1.7656,-1.7693,-1.7705,-1.7718,-1.7753,-1.7764,-1.7827,-1.7818,-1.7858,-1.7933,-1.7959,-1.7982,-1.8071,-1.8062,-1.8084,-1.8128,-1.8168,-1.8178,-1.8187,-1.8219,-1.823,-1.8092,-1.8092,-1.8092,0,-1.7586,-1.7654,-1.766,-1.771,-1.7736,-1.7726,-1.7781,-1.7805,-1.7854,-1.7872,-1.7854,-1.7947,-1.7971,-1.8048,-1.807,-1.8089,-1.8104,-1.808,-1.8176,-1.8185,-1.8194,-1.8224,-1.8236,-1.8094,-1.8094,-1.8094,-1.8093,0,-1.7693,-1.7741,-1.778,-1.7828,-1.7858,-1.791,-1.7924,-1.7954,-1.7953,-1.7967,-1.8031,-1.8059,-1.8106,-1.8125,-1.8125,-1.8202,-1.8191,-1.8175,-1.8142,-1.8208,-1.8237,-1.8248,-1.8098,-1.8097,-1.8096,-1.8096,0,0,-1.7791,-1.7841,-1.7856,-1.7877,-1.7918,-1.7955,-1.8007,-1.8052,-1.8078,-1.8112,-1.8156,-1.822,-1.8205,-1.8231,-1.8234,-1.8269,-1.8338,-1.8249,-1.8249,-1.8264,-1.8425,-1.8438,-1.8451,-1.8332,-1.8335,-1.8336,-1.8422,0,-1.7874,-1.7965,-1.7972,-1.8055,-1.8099,-1.8089,-1.8135,-1.8164,-1.8178,-1.8218,-1.8233,-1.8278,-1.8254,-1.827,-1.8305,-1.8323,-1.8371,-1.8316,-1.8373,-1.8375,-1.8364,-1.8466,-1.8479,-1.8559,-1.8434,-1.8435,-1.8437,0,-1.7982,-1.802,-1.8107,-1.8141,-1.816,-1.8201,-1.8243,-1.8281,-1.8315,-1.8322,-1.8352,-1.835,-1.8403,-1.8368,-1.8442,-1.8405,-1.8429,-1.8441,-1.8444,-1.8449,-1.841,-1.8474,-1.8584,-1.8596,-1.8455,-1.8453,-1.8452,0,-1.8045,-1.8118,-1.8179,-1.8198,-1.8239,-1.8268,-1.8287,-1.8318,-1.8345,-1.8383,-1.8401,-1.8444,-1.8467,-1.8501,-1.851,-1.8484,-1.8584,-1.855,-1.8592,-1.8592,-1.8613,-1.8612,-1.8729,-1.8629,-1.8628,-1.8628,-1.8628,0,-1.8137,-1.819,-1.8208,-1.8246,-1.8306,-1.8312,-1.8372,-1.8388,-1.8417,-1.8458,-1.8452,-1.8491,-1.8501,-1.8542,-1.855,-1.861,-1.8621,-1.8628,-1.863,-1.8629,-1.8628,-1.8644,-1.8639,-1.8631,-1.8631,-1.863,-1.8629,0,-1.8217,-1.8231,-1.8297,-1.8331,-1.8341,-1.8384,-1.8413,-1.8449,-1.8462,-1.8514,-1.8527,-1.8547,-1.8595,-1.8608,-1.8665,-1.867,-1.8741,-1.8737,-1.8729,-1.8729,-1.877,-1.8766,-1.8902,-1.892,-1.8808,-1.8809,-1.881,0,-1.8275,-1.8316,-1.8354,-1.8381,-1.8401,-1.8445,-1.8472,-1.8481,-1.851,-1.8551,-1.8583,-1.863,-1.8668,-1.8744,-1.8764,-1.8808,-1.8805,-1.8849,-1.8811,-1.8809,-1.8806,-1.8803,-1.8807,-1.8857,-1.8858,-1.8859,-1.886,0,-1.8375,-1.838,-1.842,-1.8463,-1.8496,-1.853,-1.8563,-1.8585,-1.8598,-1.8631,-1.868,-1.8709,-1.8767,-1.8814,-1.8858,-1.8877,-1.8871,-1.8871,-1.8883,-1.8883,-1.8877,-1.8881,-1.8749,-1.8868,-1.8867,-1.8867,-1.8866,-1.8866,-1.8446,-1.8482,-1.8515,-1.856,-1.8585,-1.8616,-1.8652,-1.8669,-1.871,-1.8758,-1.876,-1.8813,-1.8846,-1.8904,-1.8926,-1.8967,-1.8954,-1.8971,-1.8976,-1.898,-1.8983,-1.887,-1.8975,-1.8975,-1.8975,-1.8975,-1.8974,0,-1.8546,-1.8567,-1.8608,-1.8654,-1.8689,-1.868,-1.8716,-1.8746,-1.8792,-1.8823,-1.8861,-1.8917,-1.8962,-1.8985,-1.903,-1.9059,-1.9057,-1.907,-1.9068,-1.9073,-1.8993,-1.8978,-1.9071,-1.9071,-1.9071,-1.9071,-1.9071,-1.9071,-1.8603,-1.8663,-1.8672,-1.8745,-1.8765,-1.8817,-1.8838,-1.8866,-1.8891,-1.8954,-1.8991,-1.9006,-1.9034,-1.9081,-1.9122,-1.9128,-1.9145,-1.916,-1.9164,-1.9089,-1.9079,-1.9069,-1.9055,-1.9164,-1.9164,-1.9241,-1.9242,-1.9242]},{"header":{"parameterUnit":"m.s-1","parameterCategory":1,"la1":30.2991,"la2":30.254,"lo1":-89.0895,"lo2":-89.0444,"dy":0.0017,"dx":0.0017,"nx":28,"ny":28,"refTime":"2025-08-20T03:00:00:Z","depth":0,"parameterNumber":3,"parameterNumberName":"V-component_of_WINDS"},"data":[0,0,0,0,0,0,0,0,0,0,0,0,0,0,0,0,0,0,0,0,0,0,0,0,0,0,0,0,0,0,0,0,0,0,0,0,0,0,0,0,0,0,0,0,0,0,0,0,0,0,0,0,0,0,0,0,0,0,-1.3428,-1.3428,0,-1.3437,-1.3437,-1.3437,-1.3415,-1.3415,-1.3414,-1.3413,-1.3423,-1.3424,-1.3424,0,0,0,0,0,0,0,0,0,0,0,0,0,-1.339,-1.3391,-1.3428,-1.3428,-1.3428,-1.3437,-1.3437,-1.3438,-1.3415,-1.3415,-1.3414,-1.3413,-1.3422,-1.3423,-1.3425,0,0,0,0,0,0,0,0,0,0,0,0,0,-1.3404,-1.3391,-1.3428,-1.3418,-1.3417,-1.3437,-1.3437,-1.3438,-1.3416,-1.3415,-1.3414,-1.3413,-1.3422,-1.3423,-1.3425,-1.3454,0,0,-1.3429,-1.3429,0,0,0,0,0,0,0,0,-1.3403,-1.3405,-1.342,-1.3419,-1.3418,-1.3424,-1.3428,-1.3443,-1.3416,-1.3416,-1.3413,-1.3412,-1.3424,-1.3425,-1.3429,-1.3455,-1.3455,-1.3429,-1.343,-1.343,-1.3431,0,0,0,0,0,0,0,-1.3402,-1.3405,-1.3432,-1.342,-1.3419,-1.3413,-1.3414,-1.343,-1.3426,-1.3416,-1.3415,-1.3416,-1.3423,-1.3428,-1.3429,-1.3455,-1.3429,-1.343,-1.3431,-1.3432,-1.3504,-1.3506,0,0,0,0,0,0,-1.3403,-1.3404,-1.3431,-1.3432,-1.3408,-1.3415,-1.3416,-1.3423,-1.3426,-1.3425,-1.3417,-1.3415,-1.3426,-1.3428,-1.343,-1.3464,-1.343,-1.3432,-1.3432,-1.3503,-1.3505,-1.3506,0,0,0,0,0,0,-1.3402,-1.3405,-1.3431,-1.3418,-1.342,-1.3417,-1.3425,-1.3424,-1.3428,-1.3426,-1.3425,-1.3422,-1.3425,-1.3428,-1.3448,-1.3464,-1.3432,-1.3433,-1.3502,-1.3504,-1.3505,-1.3533,0,0,0,0,0,0,-1.3401,-1.3405,-1.3416,-1.3418,-1.3421,-1.345,-1.3426,-1.3425,-1.3431,-1.3428,-1.3431,-1.3431,-1.3425,-1.3446,-1.3449,-1.3465,-1.3435,-1.3501,-1.3503,-1.3505,-1.353,-1.3535,-1.3539,0,0,0,0,0,-1.34,-1.3424,-1.3417,-1.3421,-1.3435,-1.3451,-1.3452,-1.3445,-1.3432,-1.3443,-1.3442,-1.3431,-1.3462,-1.3448,-1.3452,-1.3468,-1.35,-1.3502,-1.3505,-1.3528,-1.3534,-1.3539,0,0,0,0,0,0,-1.3424,-1.3424,-1.3416,-1.3442,-1.3446,-1.3447,-1.3461,-1.3452,-1.346,-1.3457,-1.3448,-1.3449,-1.3471,-1.3471,-1.3457,-1.3496,-1.3478,-1.3482,-1.3495,-1.3501,-1.3505,-1.3504,-1.3436,0,0,0,0,0,-1.3433,-1.3445,-1.3444,-1.3467,-1.3469,-1.3465,-1.3471,-1.3465,-1.3469,-1.3471,-1.3471,-1.3476,-1.3486,-1.3493,-1.3503,-1.353,-1.353,-1.3543,-1.3548,-1.3551,-1.3554,-1.3568,-1.3573,-1.3514,-1.3514,-1.3514,0,0,-1.345,-1.3452,-1.346,-1.3472,-1.3475,-1.3487,-1.3467,-1.3481,-1.3491,-1.3473,-1.3493,-1.3493,-1.3497,-1.3521,-1.3531,-1.3522,-1.357,-1.3554,-1.3557,-1.3558,-1.3571,-1.3577,-1.3582,-1.3516,-1.3516,-1.3515,0,0,-1.3489,-1.3491,-1.351,-1.3513,-1.3518,-1.3514,-1.3519,-1.352,-1.352,-1.3539,-1.3526,-1.3537,-1.3556,-1.3559,-1.3563,-1.3603,-1.3592,-1.3606,-1.3629,-1.3642,-1.3647,-1.3651,-1.3665,-1.367,-1.3609,-1.3609,-1.3609,0,-1.351,-1.3529,-1.3521,-1.3536,-1.3542,-1.3526,-1.3545,-1.3549,-1.3556,-1.356,-1.355,-1.3572,-1.3574,-1.3598,-1.3608,-1.3612,-1.3616,-1.3606,-1.3647,-1.3651,-1.3655,-1.3668,-1.3673,-1.3611,-1.361,-1.361,-1.361,0,-1.3555,-1.3568,-1.3583,-1.359,-1.3597,-1.3614,-1.3608,-1.3616,-1.3609,-1.3607,-1.3626,-1.3628,-1.3638,-1.3643,-1.3637,-1.3666,-1.366,-1.3649,-1.363,-1.3662,-1.3674,-1.3679,-1.3613,-1.3612,-1.3612,-1.3611,0,0,-1.3609,-1.3611,-1.3617,-1.362,-1.3623,-1.3633,-1.3649,-1.3659,-1.3665,-1.3671,-1.3684,-1.37,-1.3689,-1.3694,-1.3688,-1.37,-1.373,-1.3687,-1.3687,-1.3694,-1.3762,-1.3771,-1.3776,-1.3723,-1.3724,-1.3725,-1.3762,0,-1.3647,-1.3674,-1.3667,-1.3695,-1.3707,-1.3692,-1.3706,-1.371,-1.3708,-1.3718,-1.3716,-1.3727,-1.3712,-1.3715,-1.3726,-1.3724,-1.3744,-1.3721,-1.3735,-1.3736,-1.3734,-1.3783,-1.3792,-1.3826,-1.3766,-1.3767,-1.3768,0,-1.3694,-1.3701,-1.373,-1.3731,-1.3736,-1.3749,-1.3756,-1.3766,-1.3769,-1.3767,-1.3772,-1.3764,-1.3779,-1.3761,-1.3782,-1.3767,-1.3772,-1.3772,-1.3773,-1.3774,-1.3753,-1.3784,-1.3837,-1.3842,-1.3775,-1.3774,-1.3774,0,-1.3731,-1.3747,-1.3767,-1.377,-1.3771,-1.3781,-1.3782,-1.3784,-1.379,-1.3797,-1.38,-1.3809,-1.3813,-1.382,-1.3814,-1.3801,-1.3835,-1.3817,-1.3834,-1.3834,-1.3842,-1.3841,-1.3896,-1.3846,-1.3845,-1.3845,-1.3845,0,-1.3773,-1.3791,-1.3783,-1.3795,-1.3814,-1.3806,-1.3825,-1.3825,-1.3827,-1.3838,-1.3826,-1.3837,-1.3828,-1.3838,-1.3833,-1.3851,-1.3853,-1.3852,-1.385,-1.3853,-1.3853,-1.3856,-1.3853,-1.3847,-1.3846,-1.3846,-1.3846,0,-1.3817,-1.3812,-1.3832,-1.3832,-1.3832,-1.3847,-1.3847,-1.3857,-1.3854,-1.3869,-1.3872,-1.3867,-1.3878,-1.3872,-1.3884,-1.3881,-1.3904,-1.3899,-1.3903,-1.3901,-1.3919,-1.3917,-1.3977,-1.3984,-1.3929,-1.393,-1.393,0,-1.3845,-1.3858,-1.3859,-1.3866,-1.3868,-1.3879,-1.3884,-1.3876,-1.3883,-1.3888,-1.3898,-1.3908,-1.3915,-1.3933,-1.3931,-1.394,-1.3935,-1.3955,-1.3936,-1.3938,-1.3935,-1.3934,-1.3935,-1.3959,-1.396,-1.396,-1.396,0,-1.3894,-1.389,-1.3899,-1.3907,-1.3914,-1.392,-1.3925,-1.3931,-1.3923,-1.3931,-1.3942,-1.3948,-1.3959,-1.3969,-1.3977,-1.3977,-1.3968,-1.3966,-1.3971,-1.3973,-1.3975,-1.3974,-1.3913,-1.3965,-1.3965,-1.3964,-1.3964,-1.3964,-1.393,-1.3941,-1.3943,-1.3953,-1.3956,-1.3961,-1.3971,-1.3969,-1.3978,-1.3987,-1.3981,-1.3994,-1.3997,-1.4006,-1.4008,-1.4018,-1.401,-1.4016,-1.4018,-1.4019,-1.4021,-1.3973,-1.4019,-1.4019,-1.4019,-1.4019,-1.4018,0,-1.3978,-1.3979,-1.3988,-1.3995,-1.4003,-1.3993,-1.3998,-1.4005,-1.4016,-1.402,-1.4027,-1.404,-1.4049,-1.4047,-1.4056,-1.4064,-1.4059,-1.4066,-1.4066,-1.4066,-1.4028,-1.4024,-1.407,-1.407,-1.407,-1.407,-1.407,-1.407,-1.4004,-1.4022,-1.4019,-1.4038,-1.4039,-1.4051,-1.4055,-1.4059,-1.4061,-1.4076,-1.4083,-1.4082,-1.4083,-1.4092,-1.41,-1.4099,-1.4102,-1.4111,-1.4109,-1.4074,-1.4068,-1.4064,-1.4059,-1.4112,-1.4112,-1.4145,-1.4145,-1.4146]}]]